軌道要素
Epoch 2014 Apr. 13.0 TT = JDT 2456760.5
T 2014 Apr. 19.40300 TT MPCW
q 4.5792103 (2000.0) P Q
n 0.03516399 Peri. 40.06371 -0.38399303 -0.85917097
a 9.2272138 Node 74.98245 +0.73187392 -0.50652981
e 0.5037277 Incl. 20.49662 +0.56294752 +0.07247619
P 28.0
From 105 observations 2015 Feb. 27-June 12, mean residual 0".4.
|